Regional Weather Roundup
Issued by NWS

Home | Current Version | Previous Version | Text Only | Print | Product List | Glossary Off
Versions: 1 2 3 4 5 6 7 8 9 10 11 12 13 14 15 16 17 18 19 20 21 22 23 24 25 26 27 28 29 30 31 32 33 34 35 36 37 38 39 40 41 42 43 44 45 46 47 48 49 50

000
ASUS43 KLOT 300308
RWRIL

ILLINOIS REGIONAL WEATHER ROUNDUP
NATIONAL WEATHER SERVICE CHICAGO/ROMEOVILLE IL
1000 PM CDT SUN MAR 29 2015

NOTE: "FAIR" INDICATES FEW OR NO CLOUDS BELOW 12,000 FEET WITH NO
SIGNIFICANT WEATHER AND/OR OBSTRUCTIONS TO VISIBILITY.

* THESE STATIONS ARE NOT UNDER NWS QUALITY CONTROL. THEY ALSO MAY NOT
  REPORT WEATHER SUCH AS PRECIPITATION OR FOG.

ILZ001-002-007-009-015-016-024-300400-
NORTHWEST ILLINOIS

CITY           SKY/WX    TMP DP  RH WIND       PRES   REMARKS
MOLINE         CLEAR     48  28  46 NW14      29.99R
STERLING*      CLEAR     39  34  81 NW9       29.95R WCI  33
SAVANNA*       FAIR      48  29  47 NW12G20   29.95R
$$

ILZ003-004-008-010-011-017-018-300400-
NORTH CENTRAL ILLINOIS

CITY           SKY/WX    TMP DP  RH WIND       PRES   REMARKS
ROCKFORD       CLEAR     42  33  70 W12       29.92R
FREEPORT*      CLEAR     40  32  71 W10       29.94R
ROCHELLE*      CLEAR     36  32  87 W8        29.93R WCI  29
DE KALB*       PTCLDY    38  32  79 W12       29.91R WCI  30
PERU*          CLEAR     40  35  82 NW8       29.96R
$$

ILZ005-006-012>014-019>023-300400-
NORTHEAST ILLINOIS

CITY           SKY/WX    TMP DP  RH WIND       PRES   REMARKS
CHICAGO-OHARE  PTCLDY    42  34  73 W10       29.89R
CHICAGO-MIDWAY PTCLDY    46  34  62 W13       29.91R
AURORA         CLEAR     34  29  82 W7        29.92R WCI  28
LANSING*       PTCLDY    45  32  61 NW10      29.92R
JOLIET*        MOCLDY    46  34  63 NW3       29.93R
WAUKEGAN       MOCLDY    43  35  73 W5        29.87R
DUPAGE AIRPORT MOCLDY    41  33  73 W8        29.90R
KANKAKEE*      PTCLDY    45  34  67 NW8       29.95R
WHEELING       CLEAR     42  34  73 W8        29.90R
MORRIS*        CLEAR     39  33  77 W5        29.93R
ROMEOVILLE*    PTCLDY    42  33  71 NW12      29.92R
NORTHERLY ISL    N/A     46  33  60 NW10        N/A
$$

LMZ740>746-300400-
SOUTHERN LAKE MICHIGAN

STATION/POSITION SKY/WX   TEMP    WIND        PRES    VSBY  WAVE
                          AIR SEA DIR/SP/G                  HT/PER
                          (F)     (DEG/KT/KT) (MB)    (MI)  (FT/S)
HARRISON CRIB              47     290/ 17/ 22   N/A
BURNHAM HARBOR             45     270/ 10/ 14   N/A
CALUMET HARBOR             47     280/  9/ 18 1010.6R
BURNS HARBOR               41     290/ 12/ 19 1012.5R
MICHIGAN CITY              41     260/ 19/ 20   N/A
$$

ILZ025>027-034>036-040-047-049-050-058-095>099-300400-
WEST-CENTRAL ILLINOIS

CITY           SKY/WX    TMP DP  RH WIND       PRES   REMARKS
QUINCY         CLEAR     48  36  63 W8        30.04R
GALESBURG*     CLEAR     41  33  72 W8        29.99R
MACOMB*        CLEAR     41  34  77 W9        30.04R
JACKSONVILLE*  CLEAR     47  40  75 SW6       30.02R
PITTSFIELD*    CLEAR     50  40  66 W5        30.05R
$$

ILZ028>032-037-038-041>044-048-051>054-059>061-300400-
CENTRAL ILLINOIS

CITY           SKY/WX    TMP DP  RH WIND       PRES   REMARKS
PONTIAC        CLEAR     43  39  85 N6        29.97R
BLOOMINGTON    CLEAR     47  40  76 W10       29.98R
DECATUR        MOCLDY    50  40  68 W13       29.99R
PEORIA         CLEAR     49  37  63 W7        29.98R
LACON*         CLEAR     44  36  73 W5        29.97R
LINCOLN*       CLEAR     52  40  64 W6        29.99R
SPRINGFIELD    CLEAR     47  39  74 W12       30.01R
TAYLORVILLE    PTCLDY    48  39  71 W10       30.01R
$$

ILZ033-039-045-046-055>057-062-063-300400-
EAST-CENTRAL ILLINOIS

CITY           SKY/WX    TMP DP  RH WIND       PRES   REMARKS
CHAMPAIGN      PTCLDY    46  40  79 SW14      29.97R
DANVILLE*      MOCLDY    46  40  80 SW20G25   29.91R
RANTOUL*       MOCLDY    47  41  79 W13       29.95R
MATTOON        MOCLDY    47  41  80 SW9       29.98R
PARIS*         CLOUDY    46  43  87 SW14      29.98R
$$

ILZ079-100>102-300400-
SOUTHWEST ILLINOIS

CITY           SKY/WX    TMP DP  RH WIND       PRES   REMARKS
BELLEVILLE     MOCLDY    47  43  84 W2        30.04R
CAHOKIA*       PTCLDY    50  41  71 SW5       30.05R
SPARTA*        MOCLDY    50  41  71 SW5       30.06R
$$

ILZ064>066-069>071-074>076-080>082-084>086-088>090-092>094-300400-
SOUTH-CENTRAL ILLINOIS

CITY           SKY/WX    TMP DP  RH WIND       PRES   REMARKS
CARBONDALE     MOCLDY    53  44  71 SW9       30.07R
CAIRO*         CLOUDY    55  48  80 W5        30.08S
EFFINGHAM*     CLOUDY    47  39  73 SW7       30.03R
MARION         CLOUDY    55  45  67 SW6       30.07R
MT. VERNON     CLOUDY    45  37  76 SW5       30.06R
CENTRALIA*     MOCLDY    48  40  73 SW9       30.04R
SALEM*         MOCLDY    49  42  77 SW9       30.04R
METROPOLIS*    CLOUDY    56  48  74 W6        30.07F
$$

ILZ067-068-072-073-078-083-087-091-300400-
SOUTHEAST ILLINOIS

CITY           SKY/WX    TMP DP  RH WIND       PRES   REMARKS
LAWRENCEVILLE  CLOUDY    49  42  77 SW9       30.03R
FLORA*         CLOUDY    48  41  76 SW10      30.03R
FAIRFIELD*     CLOUDY    49  44  81 SW5       30.04R
HARRISBURG*    CLOUDY    55  46  70 SW10      30.07R
ROBINSON*      CLOUDY    45  40  85 SW9       30.01S
CARMI*         CLOUDY    52  41  66 SW8       30.05R
$$

ABBREVIATIONS USED IN REMARKS
   TC - TEMPERATURE IN CELSIUS
  WCI - WIND CHILL INDEX
   HX - HEAT INDEX
  VSB - VISIBILITY
$$




USA.gov is the U.S. government's official web portal to all federal, state and local government web resources and services.